Dayton, OH

2:02 AM EDT on August 21, 2017 (GMT -0400)
Cox-Dayton International

Weather History for KDAY - July, 2013

Change the Weather History Date:

Saturday, July 27, 2013

  Actual Average Record
Temperature  
Mean Temperature 69 °F 74 °F  
Max Temperature 78 °F 84 °F 104 °F (1901)
Min Temperature 59 °F 64 °F 50 °F (1900)
Degree Days  
Heating Degree Days 0 0  
Month to date heating degree days 0 0  
Since 1 June heating degree days 11 22  
Since 1 July heating degree days 0 0  
Cooling Degree Days 4 9  
Month to date cooling degree days 280 243  
Year to date cooling degree days 619 503  
Since 1 June cooling degree days 488 433  
Growing Degree Days 20 (Base 50)    
Moisture  
Dew Point 61 °F    
Average Humidity 74    
Maximum Humidity 100    
Minimum Humidity 47    
Precipitation  
Precipitation 1.24 in 0.11 in 1.43 in (2006)
Month to date precipitation 3.56 3.66  
Year to date precipitation 20.98 24.87  
Snow  
Snow 0.00 in 0.00 in - ()
Month to date snowfall 0.0 0.0  
Since 1 June snowfall 0.0 0.0  
Since 1 July snowfall 0.0 0.0  
Snow Depth 0.00 in    
Sea Level Pressure  
Sea Level Pressure 29.91 in    
Wind  
Wind Speed 10 mph (SSW)    
Max Wind Speed 23 mph    
Max Gust Speed 26 mph    
Visibility 6 miles    
Events Rain    
T = Trace of Precipitation, MM = Missing Value Source: NWS Daily Summary

Daily Weather History Graph

Daily Weather History Graph

Search for Another Location

Airport or City:

Trip Planner

Search our weather history database for the weather conditions in past years. The results will help you decide how hot, cold, wet, or windy it might be!

Date:

Astronomy

Jul. 27, 2013 Rise Set
Actual Time 6:31 AM EDT 8:55 PM EDT
Civil Twilight 6:00 AM EDT 9:25 PM EDT
Nautical Twilight 5:22 AM EDT 10:03 PM EDT
Astronomical Twilight 4:40 AM EDT 10:45 PM EDT
Moon 11:42 PM EDT (7/27) 12:10 PM EDT (7/27)
Length of Visible Light 15h 25m
Length of Day
14h 23m
Waning Gibbous, 71% of the Moon is Illuminated
Jul 27
Waning Gibbous
Jul 29
Last Quarter
Aug 6
New
Aug 14
First Quarter
Aug 20
Full

Hourly Weather History & Observations

Time (EDT) Temp. Dew Point Humidity Pressure Visibility Wind Dir Wind Speed Gust Speed Precip Events Conditions
12:56 AM 70.0 °F 60.1 °F 71% 29.96 in 10.0 mi SSW 8.1 mph - N/A   Mostly Cloudy
1:56 AM 70.0 °F 61.0 °F 73% 29.95 in 10.0 mi SW 6.9 mph - 0.00 in   Overcast
2:56 AM 66.9 °F 62.1 °F 84% 29.95 in 7.0 mi WSW 8.1 mph - 0.00 in Rain Light Rain
3:56 AM 66.0 °F 61.0 °F 84% 29.94 in 6.0 mi WSW 5.8 mph - 0.02 in Rain Light Rain
4:56 AM 64.0 °F 62.1 °F 93% 29.94 in 3.0 mi SSW 5.8 mph - 0.18 in Rain Rain
5:56 AM 63.0 °F 61.0 °F 93% 29.93 in 5.0 mi SSW 5.8 mph - 0.14 in Rain Light Rain
6:56 AM 64.0 °F 62.1 °F 93% 29.93 in 4.0 mi South 5.8 mph - 0.06 in Rain Light Rain
7:41 AM 64.4 °F 62.6 °F 94% 29.94 in 1.0 mi South 9.2 mph - 0.14 in Rain Heavy Rain
7:56 AM 64.9 °F 63.0 °F 93% 29.91 in 1.8 mi South 9.2 mph - 0.21 in Rain Rain
8:07 AM 64.4 °F 62.6 °F 94% 29.93 in 2.0 mi South 11.5 mph - 0.02 in Rain Rain
8:22 AM 64.4 °F 62.6 °F 94% 29.93 in 3.0 mi South 9.2 mph - 0.04 in Rain Light Rain
8:39 AM 64.4 °F 64.4 °F 100% 29.94 in 2.0 mi South 8.1 mph - 0.05 in Rain Rain
8:56 AM 64.9 °F 63.0 °F 93% 29.93 in 3.0 mi SSW 8.1 mph - 0.06 in Rain Light Rain
9:08 AM 64.4 °F 62.6 °F 94% 29.95 in 3.0 mi SSW 11.5 mph - 0.02 in Rain Light Rain
9:17 AM 64.4 °F 62.6 °F 94% 29.95 in 3.0 mi SSW 10.4 mph - 0.03 in Rain Rain
9:23 AM 64.4 °F 62.6 °F 94% 29.95 in 2.0 mi SW 9.2 mph - 0.05 in Rain Heavy Rain
9:29 AM 64.4 °F 62.6 °F 94% 29.95 in 1.8 mi SSW 11.5 mph - 0.08 in Rain Heavy Rain
9:56 AM 63.0 °F 62.1 °F 97% 29.93 in 1.2 mi SSW 9.2 mph 17.3 mph 0.31 in Rain Heavy Rain
10:04 AM 62.6 °F 62.6 °F 100% 29.94 in 2.0 mi South 9.2 mph - 0.04 in Rain Rain
10:35 AM 62.6 °F 62.6 °F 100% 29.93 in 2.0 mi South 9.2 mph - 0.16 in Rain Heavy Rain
10:41 AM 62.6 °F 62.6 °F 100% 29.93 in 1.8 mi South 10.4 mph - 0.20 in Rain Heavy Rain
10:50 AM 62.6 °F 62.6 °F 100% 29.93 in 3.0 mi South 11.5 mph - 0.22 in Rain Light Rain
10:56 AM 64.0 °F 62.1 °F 93% 29.91 in 4.0 mi South 9.2 mph - 0.22 in Rain Light Rain
11:56 AM 64.9 °F 64.0 °F 97% 29.90 in 3.0 mi South 10.4 mph - 0.03 in Rain Light Rain
12:05 PM 64.4 °F 64.4 °F 100% 29.92 in 2.0 mi South 11.5 mph - 0.00 in Rain Light Rain
12:26 PM 64.4 °F 64.4 °F 100% 29.91 in 1.5 mi South 10.4 mph - 0.00 in   Overcast
12:49 PM 64.4 °F 64.4 °F 100% 29.91 in 3.0 mi SSW 9.2 mph - 0.01 in Rain Light Rain
12:56 PM 64.9 °F 64.0 °F 97% 29.89 in 3.0 mi SSW 10.4 mph - 0.01 in   Overcast
1:23 PM 68.0 °F 66.2 °F 94% 29.90 in 6.0 mi SSW 10.4 mph - N/A   Overcast
1:56 PM 71.1 °F 66.0 °F 84% 29.88 in 10.0 mi SW 11.5 mph - N/A   Mostly Cloudy
2:48 PM 73.4 °F 62.6 °F 69% 29.88 in 10.0 mi SW 16.1 mph 23.0 mph N/A   Scattered Clouds
2:56 PM 73.9 °F 61.0 °F 64% 29.86 in 10.0 mi WSW 13.8 mph 23.0 mph N/A   Mostly Cloudy
3:56 PM 75.9 °F 61.0 °F 60% 29.85 in 10.0 mi SW 16.1 mph - N/A   Mostly Cloudy
4:56 PM 77.0 °F 55.0 °F 47% 29.84 in 10.0 mi WSW 17.3 mph - N/A   Mostly Cloudy
5:56 PM 75.9 °F 55.0 °F 48% 29.84 in 10.0 mi WSW 18.4 mph - N/A   Scattered Clouds
6:56 PM 75.0 °F 55.9 °F 51% 29.84 in 10.0 mi WSW 13.8 mph - N/A   Scattered Clouds
7:56 PM 72.0 °F 57.0 °F 59% 29.85 in 10.0 mi WSW 10.4 mph - N/A   Scattered Clouds
8:56 PM 70.0 °F 57.9 °F 65% 29.87 in 10.0 mi West 12.7 mph 17.3 mph N/A   Scattered Clouds
9:56 PM 69.1 °F 55.9 °F 63% 29.90 in 10.0 mi NW 9.2 mph - N/A   Mostly Cloudy
10:56 PM 63.0 °F 55.9 °F 78% 29.92 in 10.0 mi NNW 6.9 mph - N/A   Scattered Clouds
11:56 PM 60.1 °F 55.9 °F 86% 29.92 in 10.0 mi NNW 5.8 mph - N/A   Partly Cloudy